Terminal Aerodrome Forecast
Issued by NWS Riverton, WY

Home | Current Version | Previous Version | Text Only | Print | Product List | Glossary On
Versions: 1 2 3 4 5 6 7 8 9 10 11 12 13 14 15 16 17 18 19 20 21 22
000
FTUS45 KRIW 202300
TAFRIW
TAF
KRIW 202327Z 2100/2124 21006KT P6SM SCT100 BKN200
     FM210900 24006KT P6SM BKN100 WS020/26035KT=

USA.gov is the U.S. government's official web portal to all federal, state and local government web resources and services.